星链-32586 (STARLINK-32586)

导读

STARLINK-32586是美国SpaceX公司于2024年11月14日发射的星链(Starlink)低轨互联网卫星,属于星链星座组网的组成部分。星链项目旨在通过大规模低轨卫星部署,为全球偏远地区、基础设施缺失区域提供高速低延迟的宽带互联网接入服务。该卫星运行于近地轨道,依托星链星座的激光星间链路技术,可实现高速数据传输,助力全球覆盖网络的搭建,进一步扩展星链的服务范围与网络容量。

基本信息
目录编号:
61975
目录名称:
STARLINK-32586
国际标识:
2024-210S
轨道中心:
EARTH
卫星名称:
星链-32586
卫星全名:
星链-32586 (STARLINK-32586)
卫星状态:
在轨 (已飞行580 天)
发射日期:
2024-11-14 UTC
国别 :
美国 (US)
星等 :
--
轨道信息
数据来源 国际轨道数据
星历时间: 2026-06-17T12:04:01+0800
15小时前
查看轨道信息
半长轴: 6861.11km
偏心率: 0.000255
轨道倾角: 42.990°
近地点辐角 272.928°
升交点赤经 338.048°
平近点角 87.128°
近地点: 481.223km
远地点: 484.723km
周期: 94.265分钟
每日圈数: 15.276055
详细信息
固有亮度:
5
最大亮度:
2.5
卫星平台:
Starlink V1.0
覆盖范围:
全球
运营商:
太空探索技术公司
运营商所在国:
美国
制造商(研发单位):
太空探索技术公司
制造商所在国:
美国
使用方式:
暂无
卫星简介
Starlink 计划是 SpaceX 推出的全球卫星互联网项目,通过发射低轨道卫星,为全球尤其是偏远地区提供高速、低延迟的互联网服务。自 2019 年起,Starlink 已部署数千颗卫星,旨在缩小全球数字鸿沟,推动互联网普及。该项目还为军事、航空等行业提供通信支持,带来广泛经济效益。
2D轨道图
3D轨道图
轨道高度分析图
轨道倾角分析图
轨道综合分析图
查看轨道综合分析图